Portada
METAR-TAF:

METAR-TAF

Aeroports :

Franklin County, Vermont, Estats Units d'Amèrica

latitud: 44-56-25N, longitud: 073-05-51W, altitud: 69 m

Observació

L'informe es va fer fa 21 minuts, a les 20:35 UTC
Vent 3 kt del Nord/Nord-Oest
Temperatura 18°C
Humitat 68%
Pressió 1018 hPa
Visibilitat: 16.1 km
Cel ennuvolat a una alçada de 9000 ft

METAR: KFSO 152035Z AUTO 34003KT 10SM BKN090 18/12 A3006 RMK AO2 T01800121

Hora: 16:56 (20:56 UTC)


TAF: manca

Observacions i pronòstics meteorològics de més de 4000 aeroports (METAR i TAF).

Les estacions disponibles són els punts grocs i vermells al mapa.

Posi el ratolí al punt desitjat per veure el nom de l'estació.

Feu clic per veure les observacions i els pronòstics meteorològics.

Per canviar el mapa: feu clic els botons verds amb una creu de color negre per apropar; al botó verd amb un guió per allunyar la imatge; o en les fletxes verdes per a mapes adjacents.


METAR-TAF: